Temp
18 18 19 22 22 21 20 21 20 19 19 18 17 17 17 16 17 17 16 16 16 16 16 16 15 15 15 15 14 13 13 12 12 11 10 10 10 10 11 11 11 11 11
17 17 17 17 19 19 19 18 18 18 18 18 17 16 16 16 16 16 15 15 15 15 16 16 15 15 15 14 14 14 13 12 12 12 10 9 9 9 10 11 11 11 10
18 17 16 16 17 16 16 16 16 17 18 18 17 16 15 14 14 14 14 15 15 15 15 15 15 15 15 15 14 14 14 13 12 12 12 10 10 9 10 10 10 10 10
19 17 17 16 15 16 16 16 16 17 17 17 17 17 17 14 15 14 15 15 15 15 15 15 15 15 15 15 15 14 14 13 13 12 12 12 12 11 10 9 9 9 8
18 16 16 16 15 16 16 16 17 17 17 17 17 17 17 15 15 14 15 15 15 14 15 15 15 15 14 14 14 14 13 13 13 12 12 12 12 11 11 11 9 10 10
16 16 15 15 15 16 16 16 16 16 16 17 16 17 16 15 15 14 14 14 14 14 14 14 15 14 14 14 13 13 13 13 12 12 11 11 11 10 10 8 8 8 10
17 15 14 14 14 14 15 16 16 16 16 16 16 16 16 16 16 16 15 14 14 14 15 14 14 14 14 13 14 13 13 12 12 11 11 11 11 10 10 10 7 6 8
17 16 15 14 14 14 14 15 15 15 16 16 15 15 16 16 16 16 16 15 15 16 15 15 14 14 13 13 13 13 12 12 11 11 11 10 10 10 10 9 8 5 5
17 15 15 14 14 14 14 14 14 15 15 15 15 15 16 16 16 16 16 16 16 15 15 14 14 14 13 13 13 12 12 11 11 11 11 10 10 10 9 9 9 8 5
17 15 14 14 14 14 14 15 15 15 15 15 15 16 16 17 17 17 17 16 16 15 15 15 14 14 13 13 12 12 12 12 11 11 11 10 10 9 9 9 8 8 7
17 16 15 14 14 14 14 15 15 15 16 15 15 16 16 17 17 17 17 17 16 16 15 15 15 14 13 13 12 12 12 12 12 11 11 10 10 10 9 9 8 7 7
17 16 15 14 14 14 14 15 15 15 15 16 16 16 17 17 17 17 17 16 16 16 15 15 14 14 13 13 13 13 12 12 11 11 11 10 9 9 9 9 8 8 7
16 15 15 15 14 14 14 14 14 15 16 16 17 17 17 17 17 17 17 16 15 15 15 14 13 12 12 12 12 11 12 11 11 10 10 9 9 8 7 7 7 7 7
17 16 16 15 15 14 14 14 14 15 16 16 17 17 17 17 17 16 15 14 14 14 13 12 12 11 10 10 10 10 11 10 9 9 8 8 7 7 7 6 6 6 5
17 17 16 15 15 15 15 15 15 16 17 17 16 17 16 16 14 14 13 12 11 11 10 10 9 9 9 9 9 9 9 9 9 8 7 6 6 5 5 5 5 4 4
18 17 17 16 15 15 15 15 15 16 17 16 15 15 14 13 12 11 10 10 9 9 9 9 9 9 8 8 8 7 8 7 7 6 5 5 5 4 3 3 3 2 2
18 18 17 16 16 16 16 15 15 15 15 14 12 12 11 10 9 9 9 8 8 8 8 8 8 7 6 6 7 6 6 5 5 4 2 3 2 1 1 0 0 0 -0
19 19 18 17 17 17 16 16 15 13 13 11 9 9 10 9 9 9 8 8 8 8 7 6 5 5 4 3 3 3 4 3 2 1 0 1 0 -1 -1 -1 -1 -1 -2
17 17 17 17 16 15 14 13 11 11 10 8 9 10 10 10 9 8 8 8 7 6 5 4 2 2 2 2 2 2 2 0 -0 -0 -1 -1 -2 -2 -2 -2 -2 -3 -3
13 11 13 13 12 11 12 11 8 7 6 9 10 11 11 10 9 8 7 7 5 3 1 0 -0 1 1 0 0 0 0 -0 -1 -2 -2 -2 -3 -3 -3 -3 -4 -4 -4
9 10 10 9 8 9 8 6 6 6 9 11 10 10 9 8 8 8 5 3 2 -1 -1 -1 -1 -1 -2 -1 -1 -1 -1 -1 -2 -3 -3 -4 -4 -4 -4 -4 -5 -5 -5
9 9 8 7 8 8 8 5 4 5 7 6 5 5 6 5 5 5 1 -0 -1 -1 -1 -1 -2 -2 -2 -2 -2 -2 -2 -2 -2 -3 -4 -5 -6 -5 -5 -5 -6 -6 -6
9 8 8 7 7 8 8 3 1 3 3 5 4 3 2 4 3 0 -1 -1 -0 -1 -1 -2 -2 -3 -3 -3 -2 -3 -3 -3 -3 -4 -5 -7 -6 -6 -7 -7 -6 -6 -6
9 8 8 7 5 6 5 4 3 3 4 2 1 0 1 -0 -0 -0 -1 -0 -0 -0 -1 -2 -2 -3 -3 -3 -3 -3 -3 -4 -4 -6 -7 -6 -6 -7 -7 -7 -7 -7 -7
9 9 8 6 4 4 3 2 3 4 2 0 -0 -0 -1 -0 -1 -1 -1 -0 -0 -0 -2 -2 -2 -2 -3 -3 -3 -4 -4 -4 -5 -6 -6 -7 -7 -7 -7 -7 -7 -7 -7
9 8 7 6 4 4 2 2 3 4 3 -0 -0 -1 -1 -1 -1 -1 -1 -1 -1 -1 -1 -1 -1 -2 -2 -3 -4 -4 -5 -5 -5 -6 -6 -7 -7 -7 -7 -7 -7 -7 -7
Height
759 760 759 758 760 764 766 769 773 778 783 789 793 798 801 805 808 812 815 817 819 821 822 825 827 829 829 830 832 833 835 836 837 838 839 838 838 838 838 838 838 838 838
758 758 759 758 759 761 764 769 773 777 782 786 791 797 801 805 807 810 814 816 818 819 822 823 825 827 828 830 832 832 834 835 836 836 837 839 841 840 838 839 838 839 840
752 755 756 757 760 761 762 766 771 776 782 788 793 797 802 806 808 810 813 815 818 819 820 822 823 825 828 830 831 832 832 832 834 835 836 838 839 837 836 836 836 837 838
748 751 753 755 758 759 763 767 770 777 782 787 791 793 795 800 803 806 810 813 816 817 818 821 823 824 825 827 829 830 830 831 831 833 833 834 836 835 837 837 836 836 837
743 747 750 753 755 756 762 767 770 775 780 784 788 791 794 797 800 804 808 810 813 816 819 820 822 822 825 824 826 828 829 829 831 832 833 834 833 835 835 833 834 833 833
740 744 748 752 753 756 761 765 768 773 777 781 785 789 792 795 797 801 805 808 811 813 815 818 820 822 823 824 824 826 827 828 829 830 832 832 833 833 835 836 835 836 833
733 738 743 747 752 755 759 761 765 769 773 778 782 786 789 792 795 798 802 805 809 810 813 815 816 820 823 824 824 825 826 828 829 829 831 832 834 834 835 836 837 838 836
726 731 734 741 746 750 754 756 760 765 770 775 779 783 787 790 793 795 799 802 805 807 811 813 816 818 821 823 824 825 827 828 829 830 831 833 833 834 835 836 837 839 838
721 726 733 738 743 747 749 752 757 762 767 771 775 779 782 786 790 794 798 801 803 806 808 811 814 815 817 821 823 824 825 826 827 829 829 830 831 833 834 835 835 837 839
721 725 728 734 740 742 747 749 753 758 764 768 771 775 779 784 787 791 793 797 801 805 807 810 812 814 816 818 821 823 824 824 825 827 827 828 829 831 833 833 833 834 836
711 717 722 732 737 740 744 745 749 755 760 765 769 772 776 779 783 787 790 794 798 802 805 807 809 811 814 816 817 817 821 821 821 823 824 826 828 829 830 831 832 831 831
710 715 720 726 734 737 740 741 745 751 756 762 766 770 774 778 781 785 789 792 794 798 801 803 806 809 810 811 813 815 816 819 819 818 819 820 823 825 827 827 828 828 829
709 714 721 724 728 731 734 737 742 747 753 759 764 768 771 774 778 782 786 789 792 795 798 801 803 806 808 809 809 810 811 812 815 816 816 817 817 820 823 825 826 826 824
705 708 714 717 721 725 729 733 738 743 750 756 760 764 767 771 776 780 784 786 790 792 796 798 800 805 806 809 809 807 808 809 811 812 814 813 816 818 820 822 823 823 822
700 702 708 710 715 720 725 729 734 739 746 752 756 761 766 771 775 778 782 786 788 791 794 797 801 805 805 809 810 811 812 809 809 809 813 813 814 818 819 821 820 820 819
692 696 699 704 709 713 717 723 729 735 741 746 752 757 764 769 773 778 782 786 790 794 799 801 800 804 806 807 808 811 811 809 808 810 812 813 814 816 819 820 819 819 818
684 690 693 696 699 704 709 716 723 730 736 742 748 754 761 767 775 780 784 786 788 793 800 802 802 806 808 805 805 807 808 807 808 811 813 811 812 815 816 818 818 818 819
676 679 684 688 693 699 706 712 720 727 734 742 748 754 761 769 778 782 788 789 796 788 795 797 801 805 807 806 806 807 809 808 810 811 814 812 812 814 814 815 815 817 818
666 669 674 680 686 693 700 708 718 724 731 741 748 755 761 770 778 784 789 793 791 791 791 798 802 804 805 808 809 811 810 811 811 812 813 814 814 815 815 815 815 816 817
660 664 671 676 685 693 698 705 715 723 732 740 748 757 763 769 776 779 784 789 789 791 797 801 803 803 805 807 810 811 812 813 813 814 815 815 815 815 815 815 815 816 817
663 667 672 679 685 692 699 708 717 726 734 741 748 755 761 766 770 773 782 788 791 796 800 800 801 806 810 812 812 811 813 814 814 814 816 817 815 815 815 816 816 816 818
667 672 675 683 691 696 701 712 722 730 737 743 750 755 760 764 767 775 784 790 795 796 796 800 804 807 810 813 813 813 814 814 814 816 817 818 816 816 817 817 818 819 819
669 676 679 688 696 702 704 715 727 732 739 746 752 759 763 764 771 777 785 791 793 793 799 803 806 809 811 812 814 814 815 815 815 817 817 819 818 818 819 820 820 821 821
678 682 687 696 703 709 713 717 727 735 740 747 756 762 764 770 777 780 783 785 790 795 800 804 806 807 809 810 813 814 815 815 816 817 818 819 820 821 822 822 822 822 822
682 684 691 702 711 716 720 726 732 736 743 750 755 761 767 771 779 780 784 787 791 794 798 802 805 806 807 809 812 813 815 816 817 818 820 821 822 823 824 824 824 824 824
679 686 694 702 711 714 721 729 733 738 742 749 755 761 768 775 779 781 784 790 792 793 798 800 801 804 806 808 811 813 816 817 819 820 821 823 824 825 825 825 825 826 826
Wind_Speed
5 7 11 22 25 26 31 36 35 33 31 29 27 24 23 21 19 16 13 11 10 8 9 9 8 7 7 7 8 10 11 12 10 7 5 3 2 2 3 2 3 3 2
7 8 9 17 25 29 30 32 33 35 34 32 28 25 24 19 18 16 13 11 11 11 10 9 9 8 8 8 9 10 9 4 11 3 3 1 1 3 3 4 4 5 5
14 11 12 15 17 22 29 33 34 35 31 27 24 20 19 18 15 16 14 13 13 11 10 10 9 8 8 8 7 6 6 4 10 4 2 1 1 2 3 7 7 8 8
10 11 14 15 19 20 24 26 32 30 25 23 23 24 24 19 15 18 16 15 14 12 12 10 9 10 10 10 8 7 6 4 3 2 7 6 6 2 2 3 8 10 11
13 14 14 18 18 23 24 28 28 27 25 23 21 22 21 17 16 17 17 16 15 13 11 11 12 12 11 9 8 6 4 3 2 3 2 3 4 8 4 3 4 8 13
12 11 14 18 19 23 26 28 27 24 22 21 21 21 20 19 20 19 18 18 16 15 14 14 13 12 11 9 7 6 4 3 3 4 5 5 3 1 1 1 3 6 7
15 14 14 15 18 23 24 26 26 25 23 23 23 22 21 21 20 21 21 21 18 18 19 18 16 14 12 11 8 7 5 4 4 4 4 3 3 3 3 3 2 2 4
14 15 15 19 22 22 24 27 26 25 26 25 24 24 22 23 19 18 21 21 20 18 18 18 16 16 13 12 10 7 6 6 6 5 4 4 3 4 4 3 2 1 2
15 16 13 18 21 22 25 28 27 26 27 27 26 26 25 23 19 17 19 19 18 18 18 19 19 18 16 13 12 9 9 9 8 7 6 4 4 4 4 3 3 3 2
12 13 13 19 22 25 27 30 29 29 28 30 30 28 27 22 20 20 21 21 19 19 18 19 19 19 17 15 14 13 11 10 9 9 10 8 6 5 3 2 2 5 4
17 16 13 19 22 24 28 30 30 30 31 32 31 27 26 25 24 25 24 21 20 20 19 19 20 21 19 17 18 16 14 13 11 11 12 12 11 10 8 6 4 4 4
12 12 13 20 21 23 25 29 30 31 33 33 31 28 24 25 25 26 24 22 22 21 22 22 22 22 20 17 17 16 18 18 18 15 15 17 15 14 11 9 8 8 7
11 12 12 14 21 23 25 27 29 31 32 32 30 27 25 26 27 22 21 20 18 17 18 16 15 18 17 16 18 20 19 20 20 20 18 18 17 16 13 10 11 11 9
15 15 13 14 20 23 24 25 27 32 33 31 30 30 28 28 26 21 17 19 17 15 15 13 11 7 5 4 6 8 10 12 14 13 14 14 14 14 11 11 10 10 8
16 16 14 13 18 20 22 25 30 36 36 33 31 31 28 24 19 19 20 19 17 15 15 13 10 7 6 5 5 5 5 6 7 6 9 9 8 7 6 7 6 7 6
16 16 16 13 13 23 26 27 29 36 39 35 28 27 22 22 23 23 21 19 17 15 12 9 6 2 3 6 8 6 5 6 6 9 8 7 7 6 7 6 5 5 5
16 16 17 16 22 27 30 28 30 30 30 26 25 26 28 28 26 23 21 18 15 11 8 7 4 4 5 7 5 5 5 6 7 8 8 7 4 4 2 1 2 3 4
14 16 14 17 24 24 25 25 27 29 29 28 30 32 33 31 26 21 16 10 4 3 3 2 1 1 2 7 6 2 3 4 5 6 5 4 4 3 2 1 3 4 5
14 13 20 20 25 28 31 31 30 33 33 33 37 36 34 30 24 15 7 2 2 2 5 5 5 4 6 5 5 2 1 4 5 5 4 2 2 1 2 4 4 4 5
8 11 18 22 26 27 35 36 31 34 32 41 39 34 30 24 16 9 4 3 8 9 9 9 7 8 6 3 2 1 2 5 5 4 3 1 2 4 5 5 2 5 6
10 19 21 19 22 29 32 29 30 31 43 41 35 32 25 20 14 9 14 15 13 13 12 11 9 8 6 4 2 2 1 3 5 3 3 3 2 4 4 3 4 5 5
13 17 21 21 24 30 38 30 28 35 35 33 30 24 20 21 20 20 17 16 16 14 12 10 8 5 5 2 1 0 1 3 4 3 4 5 6 6 6 6 5 5 4
14 17 24 24 24 27 39 29 26 30 28 26 23 22 23 21 20 22 22 19 14 13 11 10 8 6 5 4 1 1 3 3 3 4 6 5 5 5 6 7 6 6 7
10 21 24 21 18 24 27 33 31 28 28 28 25 23 23 22 20 19 17 16 13 11 12 10 9 10 8 5 2 1 3 4 5 7 6 5 5 6 5 5 5 7 7
18 21 21 19 18 22 24 27 29 29 29 27 27 25 23 23 21 17 14 12 9 7 12 10 11 11 10 8 4 1 4 6 6 6 5 5 4 5 6 7 9 7 7
20 20 21 24 23 26 24 24 27 27 29 27 24 24 24 21 19 18 16 9 7 6 6 5 6 7 5 7 7 5 7 6 7 6 6 6 4 3 3 3 4 5 6
Wind_Direction
202 194 181 178 179 184 185 187 184 182 178 169 162 161 159 160 162 167 169 182 192 191 189 178 175 166 149 155 164 152 156 152 149 119 104 110 125 116 97 165 166 147 142
201 199 174 168 177 180 184 183 182 177 176 174 170 169 167 170 168 173 175 177 177 175 177 177 170 162 169 160 168 169 169 171 181 179 146 87 190 221 210 221 229 250 262
194 192 187 174 173 175 179 183 182 179 177 176 171 168 164 158 160 168 169 170 173 170 172 176 176 178 181 193 192 195 205 193 205 206 131 101 263 297 240 236 226 234 245
196 186 186 177 180 174 179 178 180 176 176 181 182 180 179 173 193 177 173 176 180 180 183 187 192 192 190 192 199 225 241 246 220 240 242 266 251 235 323 253 244 237 239
190 181 187 183 172 167 171 181 173 177 182 188 194 191 190 191 175 175 180 186 184 183 192 193 189 188 195 207 210 198 189 192 222 229 240 269 281 266 249 288 306 275 262
181 179 180 175 165 168 172 175 176 181 186 190 194 198 196 183 172 178 188 188 188 192 194 190 193 203 205 193 187 188 197 207 212 214 218 228 235 227 273 336 294 278 303
180 177 173 171 171 174 175 178 181 182 187 193 198 204 200 192 188 190 195 191 196 199 197 196 198 199 196 198 196 193 199 209 226 236 248 251 269 292 297 271 270 297 292
186 186 177 177 176 176 177 181 183 184 192 197 200 201 198 196 197 202 201 203 208 207 200 204 204 199 200 204 201 202 209 215 223 229 224 247 263 276 289 289 212 320 302
189 181 174 179 178 177 180 179 180 185 194 196 197 198 195 197 199 204 204 212 211 209 206 210 207 204 208 210 210 212 217 220 224 230 231 259 260 265 272 278 276 239 269
185 181 176 179 183 181 185 184 185 188 195 198 200 197 199 200 204 206 207 211 213 213 212 215 214 214 215 216 222 223 225 228 234 237 231 242 247 253 252 262 263 262 262
190 183 175 180 182 181 184 187 191 195 199 203 202 200 203 206 212 213 215 217 218 220 221 227 227 223 221 226 226 228 237 243 246 249 245 242 241 248 235 260 278 272 262
192 180 170 167 178 183 185 189 194 199 203 205 203 203 206 210 215 218 222 225 226 233 236 239 238 232 229 233 240 250 256 254 246 250 246 236 230 221 222 240 257 270 266
165 164 166 180 183 184 187 192 197 202 204 203 205 207 208 212 213 217 222 222 218 217 223 229 235 233 240 246 247 253 253 254 258 254 244 232 216 214 216 227 245 254 245
176 176 178 186 186 186 188 191 198 203 202 204 208 211 214 208 208 206 202 196 195 191 192 191 190 198 213 253 259 261 261 258 259 255 245 220 211 205 215 228 234 239 245
182 186 190 186 184 185 190 194 199 201 201 205 211 219 214 209 194 175 168 156 149 144 139 131 107 88 39 353 334 313 273 245 233 197 192 183 191 205 216 226 224 239 245
190 193 194 185 185 188 192 194 198 203 203 208 209 204 191 164 158 150 144 136 128 114 97 84 88 49 305 293 311 296 280 214 207 193 184 184 198 215 228 236 244 267 273
192 191 198 192 192 196 194 193 195 196 195 185 171 160 152 145 139 130 120 112 106 86 57 12 342 301 313 307 293 275 241 211 198 199 190 178 179 195 210 55 8 347 342
199 197 197 194 199 198 189 182 179 171 159 149 145 145 140 130 125 116 111 99 81 119 174 148 145 216 48 66 68 94 182 168 171 180 196 179 167 175 199 288 339 349 346
201 197 191 183 182 175 170 162 151 151 145 137 141 140 136 131 132 134 113 112 249 190 137 136 141 114 104 69 58 8 163 146 143 149 147 153 154 159 324 307 312 325 344
158 149 158 157 154 155 161 151 143 141 138 144 140 139 141 144 148 133 137 238 169 142 133 123 103 86 81 95 93 88 148 141 117 99 93 57 4 324 323 317 337 13 0
111 124 122 122 132 143 141 126 133 136 143 144 149 154 155 158 149 158 170 157 140 135 122 103 91 94 93 92 81 118 133 149 116 68 54 39 32 26 26 22 37 25 21
120 121 115 115 127 137 135 126 125 143 149 150 149 149 153 150 142 146 143 140 141 124 104 111 119 124 123 120 148 122 198 158 91 106 86 73 65 67 63 64 56 41 32
119 122 122 118 122 132 137 126 136 150 144 141 139 140 139 133 144 148 145 144 134 120 136 150 156 168 173 179 222 329 289 199 137 145 99 90 88 87 75 58 66 60 49
121 127 124 120 108 128 134 139 148 147 147 141 141 144 137 139 146 148 148 139 136 146 155 170 182 187 188 196 200 312 254 188 171 139 127 98 95 97 83 78 81 59 43
136 130 124 118 114 138 135 147 153 153 145 144 144 142 144 145 147 137 135 137 149 157 172 189 191 193 202 201 187 18 196 178 168 154 145 124 123 117 94 82 79 73 45
131 126 129 130 141 144 142 156 162 163 154 141 145 149 152 152 149 142 140 149 159 179 198 215 214 208 217 193 174 140 167 171 179 161 165 153 135 142 100 80 89 72 74